User: anonymous   Login
Location: Petruro
(41.0333°N, 14.7833°E)
Time: 09:46:28
(UTC+00:00)
Language:

Tiangong - Orbit

View from above orbital plane
View from above orbital plane
View from above satellite
View from above satellite

Ground track
Ground track

The orbit data is extracted from the following two-line orbital elements,

1 48274U 21035A   21259.96900441  .00009952  00000-0  11494-3 0  9995
2 48274  41.4702  83.0804 0002411 292.5003 188.4918 15.61890185 22059
Epoch (UTC): 16 September 2021 23:15:21
Eccentricity: 0.0002411
inclination: 41.4702°
perigee height: 380 km
apogee height: 384 km
right ascension of ascending node: 83.0804°
argument of perigee: 292.5003°
revolutions per day: 15.61890185
mean anomaly at epoch: 188.4918°
orbit number at epoch: 2205

The dashed part of the orbit path shows where the satellite is in the earth's shadow,  

DLR